Harbor Springs, MI

12:07 AM EST on December 17, 2017 (GMT -0500)
Harbor Springs

Weather History for KMGN - February, 2013

Change the Weather History Date:

Tuesday, February 5, 2013

  Actual Average (KPLN) Record (KPLN)
Temperature  
Mean Temperature 10 °F -  
Max Temperature 21 °F 24 °F 52 °F (2005)
Min Temperature 0 °F 4 °F -24 °F (2009)
Degree Days  
Heating Degree Days 54    
Moisture  
Dew Point 8 °F    
Average Humidity 81    
Maximum Humidity 87    
Minimum Humidity 68    
Precipitation  
Precipitation 0.00 in - - ()
Sea Level Pressure  
Sea Level Pressure 29.80 in    
Wind  
Wind Speed 4 mph (West)    
Max Wind Speed 13 mph    
Max Gust Speed 22 mph    
Visibility 7 miles    
Events Snow    
Averages and records for this station are not official NWS values.
T = Trace of Precipitation, MM = Missing Value Source: NWS Daily Summary

Daily Weather History Graph

Daily Weather History Graph

Search for Another Location

Airport or City:

Trip Planner

Search our weather history database for the weather conditions in past years. The results will help you decide how hot, cold, wet, or windy it might be!

Date:

Astronomy

Feb. 05, 2013 Rise Set
Actual Time 7:55 AM EST 5:52 PM EST
Civil Twilight 7:24 AM EST 6:23 PM EST
Nautical Twilight 6:48 AM EST 6:59 PM EST
Astronomical Twilight 6:14 AM EST 7:33 PM EST
Moon 3:41 AM EST (2/5) 1:03 PM EST (2/5)
Length of Visible Light 10h 59m
Length of Day
9h 57m
Waning Crescent, 27% of the Moon is Illuminated
Feb 5
Waning Crescent
Feb 10
New
Feb 17
First Quarter
Feb 25
Full
Mar 4
Last Quarter

Hourly Weather History & Observations

Time (EST) Temp. Windchill Dew Point Humidity Pressure Visibility Wind Dir Wind Speed Gust Speed Precip Events Conditions
12:14 AM 7.7 °F - 4.1 °F 85% 29.90 in 10.0 mi Calm Calm - N/A   Overcast
12:34 AM 7.7 °F - 3.9 °F 85% 29.90 in 10.0 mi Calm Calm - N/A   Overcast
12:55 AM 5.4 °F - 1.4 °F 84% 29.89 in 10.0 mi Calm Calm - N/A   Scattered Clouds
1:14 AM 4.5 °F -2.7 °F 1.2 °F 86% 29.88 in 10.0 mi ENE 3.5 mph - N/A   Clear
1:35 AM 1.9 °F -7.6 °F -1.5 °F 86% 29.87 in 10.0 mi ENE 4.6 mph - N/A   Scattered Clouds
1:53 AM 1.9 °F -9.2 °F -1.3 °F 86% 29.87 in 10.0 mi ENE 5.8 mph - N/A   Scattered Clouds
2:14 AM 2.8 °F -6.6 °F -0.2 °F 87% 29.87 in 10.0 mi NE 4.6 mph - N/A   Clear
2:35 AM 1.2 °F -8.5 °F -2.2 °F 86% 29.86 in 10.0 mi NE 4.6 mph - N/A   Scattered Clouds
2:54 AM 0.7 °F -9.1 °F -2.7 °F 86% 29.86 in 10.0 mi ENE 4.6 mph - N/A   Scattered Clouds
3:14 AM 0.5 °F -9.3 °F -3.1 °F 85% 29.86 in 10.0 mi NE 4.6 mph - N/A   Clear
3:35 AM -0.8 °F -8.7 °F -4.2 °F 85% 29.86 in 10.0 mi NE 3.5 mph - N/A   Clear
3:54 AM -0.6 °F -8.5 °F -4.0 °F 85% 29.85 in 10.0 mi NE 3.5 mph - N/A   Clear
4:14 AM -0.9 °F -8.9 °F -4.4 °F 85% 29.84 in 10.0 mi ENE 3.5 mph - N/A   Mostly Cloudy
4:35 AM -0.6 °F -10.6 °F -4.2 °F 85% 29.83 in 10.0 mi NE 4.6 mph - N/A   Mostly Cloudy
4:54 AM 0.9 °F -6.9 °F -2.7 °F 85% 29.83 in 10.0 mi NE 3.5 mph - N/A   Mostly Cloudy
5:15 AM 2.1 °F - -1.3 °F 86% 29.82 in 10.0 mi Calm Calm - N/A   Mostly Cloudy
5:34 AM 7.7 °F - 3.2 °F 82% 29.81 in 10.0 mi Calm Calm - N/A   Overcast
5:54 AM 7.7 °F - 3.2 °F 82% 29.80 in 10.0 mi Calm Calm - N/A   Overcast
6:15 AM 7.7 °F - 3.0 °F 81% 29.79 in 10.0 mi Calm Calm - N/A   Overcast
6:34 AM 8.4 °F - 3.2 °F 79% 29.79 in 10.0 mi Calm Calm - N/A   Overcast
6:54 AM 10.4 °F 2.2 °F 5.0 °F 79% 29.79 in 10.0 mi SSW 4.6 mph - N/A   Overcast
7:15 AM 11.1 °F - 4.3 °F 74% 29.78 in 10.0 mi Calm Calm - N/A   Overcast
7:34 AM 11.1 °F - 4.5 °F 75% 29.78 in 10.0 mi Calm Calm - N/A   Overcast
7:54 AM 12.9 °F 3.8 °F 6.3 °F 75% 29.78 in 10.0 mi South 5.8 mph - N/A   Overcast
8:15 AM 12.9 °F 6.9 °F 6.8 °F 77% 29.78 in 10.0 mi SSW 3.5 mph - N/A   Overcast
8:34 AM 12.9 °F - 7.2 °F 78% 29.77 in 10.0 mi Calm Calm - N/A   Overcast
8:54 AM 12.9 °F 6.9 °F 7.3 °F 78% 29.77 in 10.0 mi South 3.5 mph - N/A   Overcast
9:15 AM 13.1 °F 2.8 °F 7.7 °F 79% 29.76 in 3.0 mi South 6.9 mph - N/A Snow Light Snow
9:34 AM 13.1 °F 5.4 °F 8.6 °F 82% 29.76 in 2.0 mi South 4.6 mph - N/A Snow Light Snow
9:54 AM 13.8 °F 6.2 °F 9.9 °F 84% 29.76 in 1.2 mi South 4.6 mph - N/A Snow Light Snow
10:15 AM 14.5 °F 8.8 °F 10.9 °F 86% 29.75 in 1.8 mi South 3.5 mph - N/A Snow Light Snow
10:34 AM 15.4 °F 6.8 °F 11.7 °F 85% 29.73 in 5.0 mi South 5.8 mph - N/A Snow Light Snow
10:55 AM 15.6 °F 7.0 °F 11.3 °F 83% 29.72 in 3.0 mi South 5.8 mph - N/A Snow Light Snow
11:14 AM 17.1 °F 8.7 °F 12.7 °F 83% 29.71 in 3.0 mi South 5.8 mph - N/A Snow Light Snow
11:34 AM 18.0 °F 8.7 °F 13.8 °F 84% 29.70 in 1.8 mi SSW 6.9 mph - N/A Snow Light Snow
11:55 AM 19.4 °F 8.6 °F 14.9 °F 83% 29.69 in 1.2 mi SSW 9.2 mph 17.3 mph N/A Snow Light Snow
12:14 PM 19.8 °F 9.1 °F 15.4 °F 83% 29.68 in 2.0 mi SSW 9.2 mph 16.1 mph N/A Snow Light Snow
12:34 PM 20.3 °F 9.8 °F 15.8 °F 83% 29.66 in 2.5 mi SSW 9.2 mph 16.1 mph N/A Snow Light Snow
12:55 PM 20.5 °F 9.2 °F 16.3 °F 84% 29.65 in 1.5 mi SSW 10.4 mph 16.1 mph N/A Snow Light Snow
1:14 PM 20.7 °F 9.5 °F 16.2 °F 83% 29.65 in 3.0 mi SW 10.4 mph - N/A Snow Light Snow
1:34 PM 20.7 °F 8.2 °F 16.2 °F 83% 29.65 in 5.0 mi SSW 12.7 mph 18.4 mph N/A Snow Light Snow
1:55 PM 20.7 °F 9.5 °F 16.7 °F 85% 29.65 in 1.8 mi SW 10.4 mph 17.3 mph N/A Snow Light Snow
2:14 PM 20.8 °F 9.7 °F 17.6 °F 87% 29.66 in 0.8 mi WSW 10.4 mph 16.1 mph N/A Snow Light Snow
2:34 PM 21.7 °F 10.2 °F 18.5 °F 87% 29.66 in 1.2 mi West 11.5 mph 21.9 mph N/A Snow Light Snow
2:55 PM 21.2 °F 9.5 °F 17.1 °F 84% 29.67 in 1.8 mi WNW 11.5 mph 18.4 mph N/A Snow Light Snow
3:14 PM 20.7 °F 8.2 °F 16.2 °F 83% 29.68 in 1.2 mi WNW 12.7 mph - N/A Snow Light Snow
3:34 PM 20.5 °F 10.0 °F 16.0 °F 83% 29.69 in 1.5 mi West 9.2 mph 18.4 mph N/A Snow Light Snow
3:55 PM 20.3 °F 12.5 °F 15.6 °F 82% 29.71 in 3.0 mi West 5.8 mph - N/A Snow Light Snow
4:14 PM 20.3 °F 8.3 °F 14.9 °F 80% 29.72 in 7.0 mi WNW 11.5 mph 17.3 mph N/A Snow Light Snow
4:34 PM 19.4 °F 8.6 °F 13.5 °F 78% 29.74 in 4.0 mi NW 9.2 mph 16.1 mph N/A Snow Light Snow
4:55 PM 18.0 °F 6.9 °F 12.2 °F 78% 29.75 in 3.0 mi NW 9.2 mph - N/A Snow Light Snow
5:14 PM 18.0 °F 12.7 °F 12.2 °F 78% 29.76 in 10.0 mi West 3.5 mph - N/A Snow Light Snow
5:34 PM 18.0 °F - 12.2 °F 78% 29.76 in 10.0 mi Calm Calm - N/A   Clear
5:55 PM 17.2 °F - 11.5 °F 78% 29.77 in 10.0 mi Calm Calm - N/A   Clear
6:14 PM 15.6 °F - 10.4 °F 80% 29.78 in 10.0 mi Calm Calm - N/A   Clear
6:35 PM 16.3 °F - 11.1 °F 80% 29.79 in 10.0 mi Calm Calm - N/A Snow Light Snow
6:54 PM 18.0 °F 8.7 °F 12.7 °F 80% 29.80 in 10.0 mi West 6.9 mph - N/A Snow Light Snow
7:14 PM 18.1 °F 8.9 °F 12.2 °F 78% 29.80 in 10.0 mi West 6.9 mph - N/A   Overcast
7:35 PM 19.4 °F 7.2 °F 13.6 °F 78% 29.82 in 10.0 mi WNW 11.5 mph 17.3 mph N/A Snow Light Snow
7:54 PM 19.4 °F 6.6 °F 13.3 °F 77% 29.84 in 10.0 mi WNW 12.7 mph 20.7 mph N/A Snow Light Snow
8:14 PM 19.8 °F 9.9 °F 12.6 °F 74% 29.86 in 10.0 mi WNW 8.1 mph - N/A   Overcast
8:35 PM 19.4 °F 7.9 °F 12.4 °F 74% 29.87 in 10.0 mi WNW 10.4 mph 16.1 mph N/A Snow Light Snow
8:54 PM 18.5 °F 9.3 °F 10.6 °F 71% 29.88 in 10.0 mi WNW 6.9 mph - N/A   Scattered Clouds
9:14 PM 18.1 °F 7.9 °F 10.8 °F 73% 29.89 in 10.0 mi WNW 8.1 mph - N/A   Scattered Clouds
9:35 PM 18.1 °F 6.3 °F 10.8 °F 73% 29.89 in 10.0 mi WNW 10.4 mph 17.3 mph N/A   Clear
9:54 PM 18.0 °F 5.4 °F 10.9 °F 74% 29.90 in 10.0 mi NW 11.5 mph 18.4 mph N/A   Clear
10:14 PM 18.1 °F 7.1 °F 11.3 °F 75% 29.91 in 10.0 mi NW 9.2 mph - N/A Snow Light Snow
10:35 PM 18.0 °F 7.7 °F 12.2 °F 78% 29.92 in 5.0 mi NW 8.1 mph - N/A Snow Light Snow
10:54 PM 17.2 °F 6.0 °F 11.1 °F 77% 29.94 in 10.0 mi WNW 9.2 mph 17.3 mph N/A   Scattered Clouds
11:14 PM 15.8 °F 6.1 °F 7.5 °F 70% 29.95 in 10.0 mi WNW 6.9 mph - N/A   Clear
11:35 PM 15.4 °F 5.6 °F 7.0 °F 69% 29.96 in 10.0 mi WNW 6.9 mph - N/A   Clear
11:54 PM 15.4 °F 5.6 °F 6.4 °F 68% 29.96 in 10.0 mi WNW 6.9 mph - N/A   Clear